Probability
0 0 0 3 0 0 0 0 0 0 3 3 10 16 39 55 61 58 58 61 52 55 45 35 35 35 35 29 32 32 29 26 23 29 26 19 13 16 13 16 19 19 16 13
0 0 0 0 0 0 0 0 0 3 3 3 6 13 42 48 61 58 58 61 52 48 35 35 29 32 35 29 29 29 26 23 23 19 13 13 16 13 13 6 10 10 13 13
0 0 0 0 0 0 0 0 0 0 3 0 3 6 32 42 39 52 55 61 55 58 39 29 32 32 32 29 26 26 23 23 23 16 10 10 13 10 6 6 10 10 6 6
0 0 0 0 0 0 0 0 0 0 0 0 0 0 13 32 35 39 48 58 58 55 45 39 29 32 26 26 26 26 19 19 16 13 10 10 13 6 10 10 10 6 6 6
0 0 0 0 0 0 0 3 3 3 3 3 3 0 0 32 32 32 42 52 52 52 42 45 29 29 23 23 23 19 19 16 16 16 19 16 16 10 6 6 6 6 6 6
0 0 0 0 0 0 0 3 3 3 0 0 0 0 3 23 26 29 32 39 39 42 42 42 29 29 26 23 23 19 19 19 16 13 13 16 13 13 13 10 6 6 6 6
0 0 0 0 0 0 0 0 0 0 0 0 0 0 0 10 16 23 23 32 29 26 32 39 26 29 29 23 19 19 19 19 16 13 10 10 13 13 6 6 6 3 6 10
0 0 0 0 0 0 0 0 0 0 0 0 0 3 3 19 16 23 19 32 23 26 23 26 26 26 23 19 19 19 19 19 16 16 16 13 10 13 6 3 3 6 6 3
0 0 0 0 0 0 0 0 0 0 0 0 0 0 6 10 16 23 29 29 19 19 23 29 26 26 19 19 19 19 19 19 16 13 16 16 13 13 3 6 3 3 3 3
0 0 0 0 0 0 0 0 0 0 0 0 0 0 0 10 19 19 35 29 23 23 26 19 23 19 19 19 19 16 19 16 16 13 13 13 13 10 6 3 3 6 6 3
0 0 0 0 0 0 0 0 0 0 0 0 0 0 0 19 39 35 29 29 19 19 19 13 10 10 13 13 16 13 13 13 13 13 13 13 10 10 6 6 6 6 6 6
0 0 0 0 0 0 0 0 0 0 0 0 0 0 10 16 26 32 29 13 23 13 10 10 10 10 10 13 13 10 10 10 10 10 10 6 6 6 6 6 6 6 6 3
0 0 0 0 0 0 0 0 0 0 0 0 0 0 10 16 26 23 16 16 16 19 6 6 10 10 10 10 6 6 6 10 6 6 3 3 3 3 3 3 3 0 0 0
0 0 0 0 0 0 0 0 0 0 0 0 0 0 6 23 23 16 16 10 10 16 10 10 10 10 10 10 10 6 6 6 3 3 3 3 3 3 3 0 0 0 0 0
0 0 0 0 0 0 0 0 0 0 0 0 0 0 6 16 13 16 13 10 10 16 13 13 10 10 10 6 6 6 3 3 3 3 3 3 3 0 0 0 0 0 0 0
10 0 0 0 0 0 0 0 0 0 0 0 0 0 3 10 16 13 10 6 6 13 10 13 6 10 10 6 6 6 3 3 3 3 3 0 0 0 0 0 0 0 0 0
0 0 0 0 0 0 0 0 0 0 0 0 0 0 10 13 16 10 6 3 6 6 0 10 6 6 10 10 10 3 3 3 0 0 0 0 0 0 0 0 0 0 0 0
0 0 0 0 0 0 0 0 0 0 0 0 0 6 16 10 6 10 6 3 3 0 0 3 10 10 10 10 10 3 3 0 0 0 0 0 0 0 0 0 0 0 0 0
3 0 0 0 0 0 0 0 0 0 3 3 0 3 6 6 6 6 6 3 0 3 0 3 6 10 10 10 6 3 0 0 0 0 0 0 0 0 0 0 0 0 0 0
3 3 0 0 0 0 0 0 0 0 3 3 3 6 6 6 6 6 6 3 0 3 3 3 3 10 10 10 6 0 0 0 0 0 0 0 0 0 0 0 0 0 0 0
0 0 0 0 0 0 0 0 0 0 3 6 10 10 6 6 6 6 6 3 3 3 6 3 3 3 10 10 6 0 0 0 0 0 0 0 0 0 0 0 0 0 0 0
0 0 0 0 0 0 0 0 3 13 13 6 10 3 10 6 6 6 0 3 3 3 3 3 3 3 3 3 0 0 0 0 0 0 0 0 0 0 0 0 0 0 0 0
0 0 0 0 3 10 0 10 6 6 10 3 10 10 3 0 3 3 3 3 3 3 3 3 3 3 3 0 0 0 0 0 0 0 0 0 0 0 0 0 0 0 0 0
6 3 0 0 3 3 0 0 3 3 3 3 6 6 3 3 3 3 3 3 3 0 0 0 0 0 0 0 0 0 0 0 0 0 0 0 0 0 0 0 0 0 0 0
6 6 0 0 3 0 0 0 3 3 0 0 0 0 0 3 3 3 3 0 0 0 0 0 0 0 0 0 0 0 0 0 0 0 0 0 0 0 0 0 0 0 0 0
3 3 0 0 3 0 6 0 0 3 3 0 0 0 0 3 3 3 0 0 0 0 0 0 0 0 0 0 0 0 0 0 0 0 0 0 0 0 0 0 0 0 0 0
Height
5834 5838 5840 5842 5844 5847 5850 5853 5855 5856 5857 5860 5862 5863 5864 5865 5866 5867 5867 5868 5868 5868 5867 5866 5865 5864 5863 5861 5859 5858 5856 5854 5851 5849 5847 5844 5842 5840 5837 5835 5832 5830 5828 5826
5834 5836 5837 5839 5842 5844 5847 5851 5852 5853 5855 5858 5859 5860 5861 5862 5862 5863 5863 5864 5864 5863 5863 5862 5861 5859 5858 5856 5855 5852 5850 5848 5846 5843 5840 5838 5835 5833 5830 5828 5825 5823 5820 5818
5832 5834 5835 5838 5840 5842 5845 5849 5850 5851 5853 5854 5856 5858 5858 5858 5859 5859 5859 5859 5859 5859 5858 5857 5856 5855 5853 5852 5849 5847 5845 5843 5840 5837 5834 5831 5829 5826 5823 5821 5818 5816 5813 5810
5831 5832 5834 5836 5838 5840 5843 5845 5847 5849 5851 5853 5854 5856 5855 5855 5855 5855 5855 5855 5855 5854 5853 5852 5851 5850 5848 5846 5844 5841 5839 5836 5834 5831 5828 5825 5822 5819 5816 5813 5810 5807 5805 5802
5830 5831 5832 5834 5836 5838 5840 5842 5844 5846 5848 5850 5850 5852 5853 5851 5851 5851 5851 5851 5850 5849 5849 5847 5846 5844 5842 5840 5838 5836 5833 5831 5828 5825 5822 5819 5816 5812 5809 5805 5803 5800 5797 5794
5828 5829 5830 5832 5834 5836 5838 5840 5842 5843 5845 5847 5847 5848 5850 5848 5847 5847 5847 5846 5845 5845 5843 5842 5840 5839 5837 5834 5832 5830 5827 5824 5822 5819 5815 5812 5809 5805 5802 5798 5795 5792 5789 5787
5827 5827 5828 5830 5832 5834 5836 5839 5841 5842 5844 5845 5844 5844 5845 5844 5843 5843 5842 5842 5840 5839 5838 5837 5835 5833 5831 5828 5826 5823 5821 5818 5815 5812 5809 5805 5802 5799 5795 5792 5789 5786 5782 5779
5826 5827 5827 5828 5830 5831 5833 5836 5840 5841 5842 5842 5840 5840 5841 5839 5839 5838 5838 5837 5836 5834 5833 5831 5829 5827 5825 5823 5820 5817 5815 5812 5809 5806 5803 5799 5796 5792 5789 5785 5782 5779 5776 5773
5824 5825 5825 5826 5827 5829 5830 5832 5834 5836 5836 5837 5837 5836 5836 5834 5834 5833 5833 5832 5831 5829 5828 5826 5824 5822 5819 5817 5814 5811 5809 5806 5803 5800 5797 5794 5790 5786 5783 5780 5777 5773 5769 5766
5821 5822 5823 5823 5824 5826 5828 5828 5829 5831 5832 5833 5833 5832 5832 5830 5829 5828 5828 5827 5826 5824 5823 5821 5818 5816 5813 5810 5808 5805 5803 5800 5798 5794 5791 5788 5784 5781 5778 5774 5771 5767 5764 5760
5818 5819 5821 5821 5822 5823 5824 5825 5825 5827 5828 5829 5829 5831 5826 5825 5824 5824 5823 5822 5821 5819 5817 5815 5812 5810 5807 5805 5803 5800 5798 5795 5792 5789 5786 5783 5780 5776 5772 5769 5766 5762 5759 5755
5815 5816 5817 5818 5818 5819 5820 5821 5822 5823 5823 5823 5823 5826 5821 5820 5820 5819 5819 5818 5816 5814 5812 5809 5807 5804 5802 5800 5798 5796 5793 5790 5788 5784 5781 5778 5775 5771 5768 5764 5761 5757 5754 5750
5811 5813 5814 5815 5817 5816 5816 5816 5817 5818 5818 5818 5819 5821 5816 5815 5815 5814 5813 5812 5811 5809 5807 5804 5802 5800 5797 5795 5793 5791 5788 5786 5783 5780 5777 5774 5770 5767 5763 5760 5756 5753 5749 5746
5807 5808 5810 5812 5812 5812 5812 5812 5812 5813 5813 5813 5813 5813 5812 5810 5810 5809 5808 5807 5806 5804 5802 5799 5797 5795 5793 5791 5788 5786 5784 5781 5778 5776 5772 5769 5766 5763 5759 5756 5753 5749 5745 5742
5803 5804 5805 5805 5806 5807 5807 5808 5808 5808 5808 5808 5808 5808 5807 5806 5805 5804 5803 5802 5800 5798 5796 5794 5792 5790 5788 5786 5784 5782 5779 5777 5774 5771 5768 5765 5762 5759 5756 5752 5749 5746 5742 5739
5798 5799 5800 5801 5801 5802 5802 5803 5803 5803 5803 5803 5803 5802 5801 5800 5800 5799 5798 5796 5795 5793 5791 5790 5787 5786 5783 5781 5779 5778 5776 5773 5770 5768 5765 5762 5759 5756 5753 5749 5746 5743 5739 5736
5793 5794 5795 5796 5797 5797 5798 5799 5799 5799 5799 5799 5798 5798 5796 5795 5794 5793 5792 5791 5790 5788 5786 5785 5783 5781 5779 5777 5776 5774 5772 5770 5767 5764 5761 5758 5755 5753 5750 5747 5744 5741 5737 5734
5789 5790 5790 5791 5793 5793 5795 5794 5794 5794 5794 5793 5793 5792 5791 5790 5789 5788 5787 5786 5784 5783 5782 5780 5779 5777 5776 5774 5772 5771 5769 5767 5764 5761 5758 5756 5753 5750 5748 5745 5742 5739 5736 5732
5785 5785 5786 5787 5787 5788 5790 5790 5790 5790 5789 5789 5788 5787 5786 5785 5784 5783 5782 5781 5780 5779 5778 5776 5775 5773 5772 5771 5769 5768 5766 5764 5762 5759 5756 5753 5751 5748 5746 5743 5740 5737 5734 5731
5781 5781 5782 5783 5783 5783 5786 5786 5785 5786 5785 5785 5783 5783 5782 5781 5780 5780 5778 5777 5776 5775 5774 5773 5772 5770 5769 5768 5766 5765 5763 5762 5759 5757 5754 5751 5749 5746 5744 5741 5738 5736 5733 5730
5777 5777 5778 5778 5778 5779 5780 5780 5781 5782 5782 5780 5779 5778 5777 5777 5776 5775 5774 5773 5772 5772 5771 5770 5769 5768 5766 5765 5764 5762 5761 5759 5757 5755 5752 5750 5747 5745 5742 5740 5737 5734 5731 5729
5773 5773 5774 5774 5774 5777 5776 5776 5777 5778 5777 5776 5775 5774 5773 5772 5772 5771 5770 5769 5769 5769 5768 5767 5766 5765 5764 5763 5761 5760 5759 5757 5755 5753 5750 5748 5746 5744 5741 5739 5736 5733 5730 5728
5768 5769 5769 5770 5772 5771 5771 5772 5772 5772 5772 5772 5771 5770 5770 5769 5768 5768 5767 5767 5766 5766 5765 5765 5764 5763 5762 5760 5759 5758 5757 5755 5753 5751 5749 5747 5745 5743 5740 5738 5735 5732 5730 5727
5764 5764 5765 5765 5766 5767 5767 5767 5768 5768 5769 5768 5768 5767 5767 5766 5766 5765 5765 5764 5764 5763 5763 5762 5761 5760 5760 5758 5757 5756 5755 5753 5752 5750 5748 5745 5743 5741 5739 5737 5734 5732 5729 5727
5760 5760 5761 5761 5763 5763 5764 5764 5765 5765 5765 5765 5765 5765 5764 5764 5764 5763 5763 5762 5761 5761 5761 5760 5759 5758 5757 5756 5755 5754 5753 5752 5750 5748 5746 5744 5742 5740 5738 5736 5734 5732 5729 5727
5756 5757 5757 5758 5759 5760 5761 5761 5762 5762 5763 5763 5763 5763 5763 5762 5762 5761 5761 5760 5760 5759 5759 5758 5757 5756 5755 5755 5754 5753 5751 5750 5749 5747 5745 5743 5741 5740 5738 5736 5734 5732 5729 5727
Wind_Speed
12 13 13 16 17 17 18 18 18 20 19 19 19 20 19 20 20 19 19 19 20 21 20 20 20 21 22 21 22 24 24 25 26 27 27 28 29 30 30 29 28 29 29 30
11 13 14 16 16 16 16 16 17 18 19 18 19 19 18 19 18 18 19 20 21 20 20 21 21 22 22 22 23 24 25 25 27 28 28 29 29 30 29 29 29 29 30 30
10 12 13 14 15 15 15 15 15 17 17 17 18 17 17 16 17 18 19 19 19 19 20 20 20 21 22 23 24 25 26 26 28 28 28 28 29 28 28 28 29 30 30 30
10 11 11 12 14 14 14 16 17 17 16 16 17 15 16 16 17 18 18 18 18 19 20 21 21 22 23 24 25 26 26 26 27 27 27 27 27 27 27 28 29 29 30 30
9 10 10 11 12 14 14 16 16 16 16 17 17 15 15 17 17 18 18 18 18 19 21 21 22 22 23 24 25 25 25 26 26 26 26 27 28 28 28 28 29 29 28 29
9 10 10 11 12 13 13 14 15 15 16 16 16 16 15 17 17 17 17 18 19 20 22 22 22 23 24 24 25 25 26 26 27 27 28 28 28 28 27 27 27 27 27 27
9 10 11 12 12 13 13 12 12 13 14 15 16 16 16 17 16 17 18 19 19 21 22 22 22 23 23 24 24 25 25 25 26 26 27 27 27 27 27 27 26 26 26 26
10 11 11 12 12 13 13 13 13 14 14 15 16 17 16 17 18 19 19 19 18 19 19 21 22 22 23 23 25 25 24 24 25 25 26 26 25 25 26 26 25 25 26 26
10 12 13 13 13 13 14 14 14 15 14 15 16 17 18 18 18 18 18 18 18 19 19 20 21 22 23 23 24 24 24 24 24 24 24 24 24 24 24 24 24 25 25 25
11 12 13 13 13 14 14 15 15 15 15 16 17 17 17 17 17 17 17 18 18 18 19 20 21 22 22 22 22 23 22 22 23 23 23 23 23 23 23 23 23 23 23 23
12 12 13 13 14 14 15 15 15 16 16 16 17 17 18 17 16 16 16 17 18 19 19 20 21 21 21 21 21 21 21 21 22 23 22 22 22 22 22 22 22 22 23 22
13 13 14 15 14 14 14 14 15 16 18 18 17 17 16 16 17 17 17 17 18 18 18 19 19 19 19 19 19 20 20 21 21 21 21 22 21 21 21 21 21 21 21 21
14 14 14 14 14 14 15 15 16 16 17 18 16 16 17 17 18 18 18 18 18 18 19 18 17 17 17 17 18 19 19 20 20 20 20 20 20 19 20 20 20 20 20 18
15 14 14 14 14 16 16 16 17 17 17 17 16 16 17 18 18 18 18 18 19 19 18 17 17 17 17 18 19 19 19 19 19 19 19 19 19 19 19 19 18 18 17 16
16 16 16 16 16 17 17 17 18 18 17 17 17 18 18 18 19 19 19 19 19 19 18 17 17 17 17 17 17 18 18 18 18 18 18 18 18 18 17 17 17 17 16 16
17 17 16 17 17 18 18 17 17 17 18 18 19 19 19 19 19 19 19 18 18 17 17 16 16 16 16 16 16 16 16 16 17 17 16 16 16 16 16 16 16 16 16 15
18 17 17 17 17 17 18 17 17 18 17 18 19 19 18 19 19 19 18 17 17 16 16 15 15 15 15 14 14 14 14 15 16 15 15 15 15 14 14 14 15 15 15 14
17 17 17 17 17 17 16 16 17 17 17 17 17 17 17 17 17 16 16 16 15 15 15 14 14 14 13 13 12 13 13 13 14 14 14 14 14 13 13 13 13 14 14 14
16 16 16 17 17 16 15 15 15 16 16 15 15 15 15 15 15 15 15 14 14 13 13 13 12 12 11 11 11 11 12 12 13 13 13 13 12 12 12 12 13 13 14 14
14 15 15 16 17 17 15 15 14 14 14 13 13 13 14 14 14 13 13 12 11 11 11 10 10 10 9 9 10 10 10 11 12 12 12 12 11 11 12 12 12 13 13 13
14 14 14 15 16 16 16 15 13 13 13 12 12 13 13 13 13 12 11 10 10 9 9 9 9 9 8 8 9 9 9 10 10 11 11 10 10 11 11 11 12 12 12 12
14 14 14 14 14 15 14 13 12 12 12 12 11 11 11 11 11 10 10 9 8 8 9 8 8 8 8 8 8 8 8 8 9 10 10 10 10 10 11 11 11 11 11 11
14 14 14 14 13 12 12 11 11 11 10 10 9 9 9 9 8 8 8 8 7 7 7 7 7 8 7 7 7 7 8 8 8 9 9 9 10 10 10 10 10 10 10 11
14 14 13 13 12 11 10 10 10 10 9 8 8 7 7 7 7 7 7 7 6 6 6 6 7 7 7 6 6 7 7 7 8 8 8 8 8 9 9 9 9 10 10 10
14 13 12 11 10 10 9 9 8 8 7 7 7 6 6 6 6 5 5 5 5 5 5 6 6 6 6 6 6 6 7 7 7 7 8 7 8 9 9 9 9 10 10 11
13 12 11 11 10 9 8 8 7 7 6 6 6 6 5 5 5 4 4 4 4 4 4 5 5 5 5 4 5 6 6 6 6 7 7 7 8 8 8 9 9 10 11 11
Wind_Direction
206 210 215 215 213 216 220 222 229 233 237 241 244 249 252 254 257 262 264 265 268 272 274 276 279 281 284 286 288 290 291 290 289 290 288 290 290 291 288 287 287 288 289 288
206 216 219 219 216 217 218 221 229 236 239 242 247 250 252 256 259 262 263 265 268 271 275 277 279 282 285 287 288 289 292 290 291 293 291 291 290 290 290 288 288 289 290 289
211 222 222 218 215 214 218 221 228 236 241 248 253 258 257 260 264 264 265 269 268 272 276 277 280 283 286 288 289 290 291 290 292 294 295 293 292 293 292 290 291 290 289 290
220 225 224 219 216 214 220 226 232 237 243 250 252 259 262 264 267 268 267 270 270 272 277 278 281 283 286 288 290 291 292 290 291 293 296 295 293 294 294 292 292 292 291 291
227 226 222 220 221 220 223 230 235 239 243 248 253 255 260 266 267 270 270 271 272 275 279 280 282 285 288 290 291 291 293 292 292 294 296 296 296 296 296 296 295 293 292 290
236 233 226 225 226 227 230 236 241 245 250 254 256 259 264 270 273 273 274 276 276 278 279 281 282 286 288 290 291 293 291 291 292 295 297 298 298 299 299 298 297 295 294 292
245 241 235 231 231 233 232 236 247 251 253 258 262 265 268 272 275 276 275 278 280 279 280 280 282 286 289 291 292 293 292 292 295 297 299 298 298 299 300 300 299 297 296 293
244 244 240 234 235 241 238 236 243 252 258 263 267 270 273 274 275 277 277 279 283 286 284 283 285 287 290 291 292 293 293 294 297 297 299 300 301 303 303 301 301 299 298 296
237 240 241 240 240 242 242 241 244 253 259 263 267 273 275 277 276 276 277 280 284 286 288 287 287 289 290 290 292 294 295 298 300 299 300 301 303 305 305 303 302 301 300 300
241 244 247 247 245 243 244 247 246 250 263 268 272 275 278 276 277 278 280 283 287 290 292 291 291 291 291 291 292 294 297 301 302 302 304 304 306 306 306 306 304 305 306 306
246 248 251 249 246 249 250 248 248 252 258 267 275 274 273 274 278 281 284 288 290 291 291 293 295 295 293 293 293 296 300 303 302 305 306 307 307 308 308 307 307 307 308 307
245 246 249 252 251 250 251 252 254 260 267 269 275 275 272 274 280 283 286 290 292 293 295 296 296 297 296 296 298 300 301 302 301 303 305 307 308 308 308 310 309 310 310 309
247 249 253 259 261 257 255 255 255 260 266 271 275 277 275 278 282 284 287 292 293 293 298 298 296 298 300 300 302 302 302 302 304 304 305 306 309 309 310 312 313 314 315 313
249 251 251 254 254 256 259 260 262 263 268 273 274 274 276 280 282 286 288 291 294 296 298 297 298 299 300 301 303 305 306 306 307 307 306 307 309 311 312 315 317 320 320 318
252 256 257 256 254 255 257 261 262 262 264 270 274 275 276 278 281 285 288 291 293 295 295 296 298 300 300 301 302 304 307 308 309 309 309 308 309 312 314 315 319 322 323 322
254 257 259 260 260 259 261 263 263 263 266 271 274 275 277 279 281 285 288 291 292 293 291 293 297 299 300 301 302 304 307 310 311 310 312 312 311 314 316 319 322 325 326 324
254 256 258 260 261 261 262 262 262 263 267 271 272 274 278 280 282 284 286 289 291 292 291 292 295 296 297 299 300 304 309 310 310 310 313 315 315 317 321 325 327 329 330 328
254 254 256 259 260 261 263 262 263 268 272 272 271 274 276 279 282 283 286 290 290 290 288 289 291 291 292 296 299 305 306 307 312 315 316 319 321 322 326 327 330 333 334 331
252 252 255 257 262 265 264 263 265 271 272 273 273 274 276 279 283 283 286 289 290 287 284 287 291 291 293 294 298 302 306 313 318 322 322 323 323 326 326 328 332 333 333 334
255 253 254 258 263 265 264 262 268 273 273 273 274 276 277 279 283 284 285 286 287 286 288 293 300 299 296 297 298 301 306 313 319 323 325 330 332 330 330 331 337 339 339 340
259 255 256 259 263 264 263 263 267 268 271 276 279 279 278 278 280 283 284 284 283 286 291 295 298 301 301 302 303 306 308 311 317 322 326 330 336 337 335 335 339 341 342 344
260 259 257 258 261 262 264 267 265 265 273 278 279 277 277 277 278 278 282 282 281 285 292 297 300 303 306 308 308 311 311 314 318 323 328 332 335 337 337 336 340 344 344 343
256 253 253 253 256 259 260 261 259 261 269 274 274 272 270 273 276 275 277 279 282 286 292 297 301 306 309 311 308 311 318 321 326 330 331 331 335 338 340 342 346 348 348 350
255 251 250 251 248 252 254 253 256 255 260 266 268 265 265 270 275 274 276 278 284 290 294 299 306 306 306 308 307 316 323 327 328 332 335 336 337 342 346 350 354 356 355 357
250 247 246 243 243 245 246 248 251 254 253 257 259 260 263 269 275 280 281 285 290 293 295 299 303 305 304 304 304 310 316 323 330 337 338 341 343 349 353 355 355 357 357 354
243 240 237 236 235 236 238 241 240 238 240 242 245 250 258 265 270 280 290 298 300 299 303 306 309 310 309 314 314 313 315 322 330 338 348 352 350 351 353 353 353 352 353 352